Regional Weather Roundup
Issued by NWS Jackson, KY

Home | Current Version | Previous Version | Text Only | Print | Product List | Glossary Off
Versions: 1 2 3 4 5 6 7 8 9 10 11 12 13 14 15 16 17 18 19 20 21 22 23 24 25 26 27 28 29 30 31 32 33 34 35 36 37 38 39 40 41 42 43 44 45 46 47 48 49 50

000
ASUS43 KJKL 201411
RWRJKL

EAST KENTUCKY HOURLY WEATHER ROUNDUP
NATIONAL WEATHER SERVICE JACKSON KY
1000 AM EDT SAT SEP 20 2014

NOTE: "FAIR" INDICATES FEW OR NO CLOUDS BELOW 12,000 FEET WITH
NO SIGNIFICANT WEATHER AND/OR OBSTRUCTIONS TO VISIBILITY.

* THESE REPORTS ARE NOT UNDER NWS QUALITY CONTROL AND MAY NOT
  REPORT WEATHER SUCH AS PRECIPITATION AND FOG.

KYZ079-080-083-085-087-088-110-112-115-119-120-201500
...EASTERN KENTUCKY...

CITY           SKY/WX    TMP DP  RH WIND       PRES   REMARKS
JACKSON        MOSUNNY   68  59  73 CALM      30.18S
LONDON         MOSUNNY   69  59  70 S5        30.19R
SOMERSET*      SUNNY     68  59  73 S5        30.18S
MONTICELLO*    SUNNY     74  62  66 S5        30.18S
WILLIAMSBURG*  MOSUNNY   68  61  77 SE5       30.19
MIDDLESBORO*   SUNNY     69  59  69 CALM      30.21S
HARLAN APT*    SUNNY     70  55  60 MISG      30.22S
HAZARD APT*    MOSUNNY   70  59  68 CALM      30.18
BLACK MTN*       N/A     61  57  88 S6          N/A
PIKEVILLE APT* CLOUDY    68  59  73 SE3       30.19S
BIG SANDY*     PTSUNNY   69  59  70 S5        30.18F
MOREHEAD APT*  PTSUNNY   70  59  68 VRB5      30.18R
$$

KYZ035-036-041-042-044-050-067-078-099-201500
...CENTRAL KENTUCKY...

CITY           SKY/WX    TMP DP  RH WIND       PRES   REMARKS
MT STERLING*   PTSUNNY   70  61  73 SW7G17    30.17S
FLEMING/MASON* MOSUNNY   70  61  73 S9        30.15S
DANVILLE*      SUNNY     70  61  73 SW9       30.17R
RICHMOND*      PTSUNNY   70  59  68 S8        30.16R
LEXINGTON      CLOUDY    71  62  73 S12       30.15R
FRANKFORT      MOSUNNY   68  62  81 S10       30.13R
$$

KYZ091>093-OHZ055-061-077-WVZ005-015-034-035-042-201500
...SOUTHERN OHIO/WEST VIRGINIA...

CITY           SKY/WX    TMP DP  RH WIND       PRES   REMARKS
COVINGTON      MOSUNNY   69  63  81 SW10G20   30.10S
COLUMBUS       PTSUNNY   70  60  70 S12       30.09F
DAYTON         PTSUNNY   68  61  78 SW14      30.09S
WILMINGTON     SUNNY     69  62  78 SW17G23   30.10S
HUNTINGTON     PTSUNNY   67  61  81 SW5       30.15S
CHARLESTON     PTSUNNY   69  59  70 S6        30.17S
PINEVILLE*     SUNNY     69  62  79 MISG      30.28S
BECKLEY        SUNNY     64  56  75 S8        30.26S
BLUEFIELD      SUNNY     66  54  65 S6        30.28R
$$

VAZ002-007-008-TNZ017-027-036-066-071-201500
...SOUTHWEST VIRGINIA/EAST TENNESSEE...

CITY           SKY/WX    TMP DP  RH WIND       PRES   REMARKS
WISE*          SUNNY     66  54  63 S9        30.27S
JONESVILLE*    SUNNY     68  59  73 E5        30.24S
ABINGDON*      SUNNY     69  59  69 SE7       30.25S
BRISTOL        SUNNY     68  57  68 VRB3      30.23S
KNOXVILLE      MOSUNNY   70  60  70 NE6       30.18S
OAK RIDGE      SUNNY     68  62  81 CALM      30.20S
CROSSVILLE     SUNNY     72  59  63 VRB5      30.21R
NASHVILLE      MOSUNNY   75  63  66 S13       30.14S
$$

...KEY TO REMARKS...
VSB - VISIBILITY IN MILES
WCI - WIND CHILL INDEX
HX  - HEAT INDEX

$$


USA.gov is the U.S. government's official web portal to all federal, state and local government web resources and services.